Location: Crescent
(42.8242°N, 73.7329°W)
Time: 02:14:23
(UTC+00:00)

Tiros 1 - Pass Details

Date: 19 February 2026
Orbit: 618 x 649 km, 48.4° (Epoch: 13 March)

Event Time Altitude Azimuth Distance (km) Brightness Sun altitude
Rises 15:15:19 0° 275° (W) 2,906 10.2 30.1°
Reaches altitude 10° 15:17:45 10° 283° (WNW) 1,995 9.4 30.4°
Maximum altitude 15:22:07 42° 354° (N) 894 7.8 30.8°
Drops below altitude 10° 15:26:26 10° 66° (ENE) 1,983 9.8 31.2°
Sets 15:28:51 0° 74° (ENE) 2,888 10.6 31.4°
